Location: Oshawa
(43.9000°N, 78.8670°W)
Time: 04:12:43
(UTC-04:00)

Altair - Visible Passes

Search period start: 22 September 2014 00:00
Search period end: 02 October 2014 00:00
Orbit: 1502 x 1682 km, 47.2° (Epoch: 18 September)

Date Brightness Start Highest point End Pass type
(mag) Time Alt. Az. Time Alt. Az. Time Alt. Az.
22 Sep 8.6 20:33:26 10° WNW 20:42:03 38° SW 20:50:24 10° SSE visible
23 Sep 8.5 20:08:10 10° WNW 20:17:01 41° SW 20:25:33 10° SSE visible
24 Sep 8.5 19:42:56 10° WNW 19:51:58 45° SW 20:00:40 10° SSE visible
24 Sep 9.7 21:52:44 10° WSW 21:54:37 11° WSW 21:56:30 10° SW visible
25 Sep 9.6 21:26:08 10° W 21:29:40 13° WSW 21:33:11 10° SW visible
26 Sep 9.6 21:00:08 10° W 21:04:43 15° WSW 21:09:14 10° SSW visible
27 Sep 9.6 20:34:22 10° W 20:39:45 17° WSW 20:45:03 10° SSW visible
28 Sep 9.6 20:08:44 10° W 20:14:46 19° SW 20:20:42 10° SSW visible
29 Sep 9.6 19:43:12 10° W 19:49:47 21° SW 19:56:15 10° S visible
30 Sep 9.6 19:17:43 10° W 19:24:48 23° SW 19:31:42 10° S visible
